Regional Weather Roundup
Issued by NWS

Home | Current Version | Previous Version | Text Only | Print | Product List | Glossary On
Versions: 1 2 3 4 5 6 7 8 9 10 11 12 13 14 15 16 17 18 19 20 21 22 23 24 25 26 27 28 29 30 31 32 33 34 35 36 37 38 39 40 41 42 43 44 45 46 47 48 49 50
000
ASUS46 KPQR 070610
RWROR

OREGON REGIONAL WEATHER ROUNDUP
NATIONAL WEATHER SERVICE PORTLAND OR
1000 PM PST SAT FEB 06 2016

NOTE: "FAIR" INDICATES FEW OR NO CLOUDS BELOW 12,000 FEET WITH
NO SIGNIFICANT WEATHER AND/OR OBSTRUCTIONS TO VISIBILITY.

ORZ001>013-070700-
NORTHWEST OREGON


CITY           SKY/WX    TMP DP  RH WIND       PRES   REMARKS
ASTORIA        MOCLDY    44  40  85 E7        30.42S
6HR MIN TEMP:  42; 6HR MAX TEMP:  50;

NEWPORT        CLOUDY    48  43  81 E7        30.43R
PORTLAND       CLOUDY    44  41  89 CALM      30.45R
6HR MIN TEMP:  44; 6HR MAX TEMP:  50;

VANCOUVER WA   CLOUDY    44  41  89 CALM      30.44S
6HR MIN TEMP:  41; 6HR MAX TEMP:  50;

SCAPPOOSE      MOCLDY    39  37  92 W3        30.45R
6HR MIN TEMP:  39; 6HR MAX TEMP:  50;

HILLSBORO      CLOUDY    42  40  92 NW3       30.45R
6HR MIN TEMP:  41; 6HR MAX TEMP:  49;

AURORA         CLOUDY    47  40  76 NE3       30.44R
6HR MIN TEMP:  46; 6HR MAX TEMP:  51;

MCMINNVILLE    CLOUDY    47  41  80 N3        30.44F
6HR MIN TEMP:  47; 6HR MAX TEMP:  53;

SALEM          CLOUDY    48  40  73 CALM      30.43R
6HR MIN TEMP:  48; 6HR MAX TEMP:  53;

CORVALLIS      CLOUDY    46  45  93 CALM      30.45R
EUGENE         CLOUDY    47  45  93 W3        30.44R FOG
6HR MIN TEMP:  47; 6HR MAX TEMP:  50;

$$

ORZ021-028-070700-
SOUTHWEST OREGON


CITY           SKY/WX    TMP DP  RH WIND       PRES   REMARKS
NORTH BEND     CLOUDY    54  54 100 SE5       30.41S
6HR MIN TEMP:  54; 6HR MAX TEMP:  55; 6HR PCP:  0.01;

BROOKINGS      PTCLDY    53  50  89 VRB6      30.41F
ROSEBURG       CLOUDY    51  49  92 S3        30.42S
6HR MIN TEMP:  50; 6HR MAX TEMP:  53;

SEXTON SUMMIT  FOG       45  45 100 S12       30.42R VSB 3/4
6HR MIN TEMP:  44; 6HR MAX TEMP:  45; 6HR PCP:  0.01;

MEDFORD        CLOUDY    50  44  80 SE3       30.44R
6HR MIN TEMP:  50; 6HR MAX TEMP:  60;

$$

ORZ014>016-041-070700-
COLUMBIA GORGE


CITY           SKY/WX    TMP DP  RH WIND       PRES   REMARKS
TROUTDALE      CLOUDY    47  39  74 E6        30.45R
6HR MIN TEMP:  47; 6HR MAX TEMP:  53;

THE DALLES     CLOUDY    41  36  82 SE6       30.46R
6HR MIN TEMP:  41; 6HR MAX TEMP:  52;

$$

ORZ029>031-041-044-049-050-061>064-502-503-505>511-070700-
EASTERN OREGON


CITY           SKY/WX    TMP DP  RH WIND       PRES   REMARKS
REDMOND        PTCLDY    33  30  88 CALM      30.42R
6HR MIN TEMP:  33; 6HR MAX TEMP:  51;

BEND           PTCLDY    34  32  93 CALM      30.43S
PRINEVILLE     CLOUDY    32  30  93 CALM      30.42R
KLAMATH FALLS  MOCLDY    34  32  92 CALM      30.45R
6HR MIN TEMP:  34; 6HR MAX TEMP:  52;

LAKEVIEW       PTCLDY    28  25  86 CALM      30.46F
HERMISTON      MOCLDY    41  34  76 S3        30.44R
6HR MIN TEMP:  40; 6HR MAX TEMP:  48;

PENDLETON      CLOUDY    38  32  79 E6        30.42R WCI  33
6HR MIN TEMP:  38; 6HR MAX TEMP:  45;

JOHN DAY       CLEAR     38  32  80 SE5       30.41F WCI  34
MEACHAM        CLOUDY    31  27  85 CALM      30.38S
6HR MIN TEMP:  31; 6HR MAX TEMP:  39;

LA GRANDE      CLOUDY    37  27  65 S10       30.40F WCI  30
6HR MIN TEMP:  36; 6HR MAX TEMP:  43;

BAKER CITY     PTCLDY    25  24  96 CALM      30.44S
6HR MIN TEMP:  25; 6HR MAX TEMP:  36;

BURNS          MOCLDY    32  28  85 W6        30.43S WCI  26
6HR MIN TEMP:  29; 6HR MAX TEMP:  39;

ROME             N/A     38  29  70 SE14      30.42F WCI  30
6HR MIN TEMP:  38; 6HR MAX TEMP:  46;

ONTARIO        PTCLDY    32  29  88 W7        30.50R WCI  26
6HR MIN TEMP:  32; 6HR MAX TEMP:  40;

$$



USA.gov is the U.S. government's official web portal to all federal, state and local government web resources and services.